| time (UTC) | temp F | wind direction | speed MPH | gust MPH | rain 1hr in | rain 24hr in | rain mn in | humidity % | barometer mb |
| 20260508064535 | 42 | 0.0 | 0.0 | 0.00 | 0.00 | 0.00 | 84 | 1014.2 | |
| 20260508063515 | 42 | 104 | 0.0 | 1.0 | 0.00 | 0.00 | 0.00 | 85 | 1014.1 |
| 20260508062515 | 41 | 103 | 0.0 | 1.0 | 0.00 | 0.00 | 0.00 | 86 | 1014.0 |
| 20260508061515 | 41 | 0.0 | 0.0 | 0.00 | 0.00 | 0.00 | 86 | 1014.1 | |
| 20260508060515 | 41 | 0.0 | 0.0 | 0.00 | 0.00 | 0.00 | 85 | 1014.0 | |
| 20260508055515 | 41 | 0.0 | 0.0 | 0.00 | 0.00 | 0.00 | 85 | 1014.2 | |
| 20260508054515 | 41 | 103 | 0.0 | 1.0 | 0.00 | 0.00 | 0.00 | 84 | 1014.3 |
| 20260508053515 | 42 | 0.0 | 0.0 | 0.00 | 0.00 | 0.00 | 83 | 1014.4 | |
| 20260508052515 | 42 | 0.0 | 0.0 | 0.00 | 0.00 | 0.00 | 82 | 1014.4 | |
| 20260508051515 | 42 | 0.0 | 0.0 | 0.00 | 0.00 | 0.00 | 81 | 1014.5 | |
| 20260508050516 | 43 | 0.0 | 0.0 | 0.00 | 0.00 | 0.00 | 81 | 1014.7 | |
| 20260508045515 | 43 | 0.0 | 0.0 | 0.00 | 0.00 | 0.00 | 81 | 1014.8 | |
| 20260508044515 | 43 | 0.0 | 0.0 | 0.00 | 0.00 | 0.00 | 81 | 1014.7 | |
| 20260508043515 | 43 | 0.0 | 1.0 | 0.00 | 0.00 | 0.00 | 81 | 1014.8 | |
| 20260508042515 | 43 | 103 | 0.0 | 1.0 | 0.00 | 0.00 | 0.00 | 82 | 1014.7 |
| 20260508041515 | 42 | 103 | 0.0 | 1.0 | 0.00 | 0.00 | 0.00 | 81 | 1014.4 |
| 20260508040515 | 43 | 53 | 0.0 | 1.0 | 0.00 | 0.00 | 0.00 | 81 | 1014.3 |
| 20260508035617 | 43 | 0.0 | 0.0 | 0.00 | 0.00 | 0.00 | 79 | 1014.2 | |
| 20260508034516 | 43 | 0.0 | 0.0 | 0.00 | 0.00 | 0.00 | 80 | 1014.3 | |
| 20260508033537 | 43 | 0.0 | 0.0 | 0.00 | 0.00 | 0.00 | 79 | 1014.3 | |
| 20260508032516 | 43 | 0.0 | 0.0 | 0.00 | 0.00 | 0.00 | 77 | 1014.2 | |
| 20260508031536 | 43 | 0.0 | 0.0 | 0.00 | 0.00 | 0.00 | 76 | 1014.1 | |
| 20260508030517 | 43 | 0.0 | 0.0 | 0.00 | 0.00 | 0.00 | 76 | 1014.2 | |
| 20260508025516 | 44 | 0.0 | 0.0 | 0.00 | 0.00 | 0.00 | 75 | 1014.3 | |
| 20260508024516 | 44 | 0.0 | 0.0 | 0.00 | 0.00 | 0.00 | 73 | 1014.3 | |
| 20260508023517 | 44 | 0.0 | 0.0 | 0.00 | 0.00 | 0.00 | 72 | 1014.2 | |
| 20260508022516 | 45 | 0.0 | 0.0 | 0.00 | 0.00 | 0.00 | 72 | 1014.2 | |
| 20260508021517 | 45 | 0.0 | 0.0 | 0.00 | 0.00 | 0.00 | 71 | 1014.2 | |
| 20260508020516 | 46 | 0.0 | 0.0 | 0.00 | 0.00 | 0.00 | 69 | 1014.2 | |
| 20260508015516 | 46 | 0.0 | 0.0 | 0.00 | 0.00 | 0.00 | 67 | 1014.1 | |
| 20260508014516 | 47 | 0.0 | 0.0 | 0.00 | 0.00 | 0.00 | 66 | 1014.0 | |
| 20260508013516 | 47 | 0.0 | 0.0 | 0.00 | 0.00 | 0.00 | 64 | 1013.8 | |
| 20260508012516 | 48 | 0.0 | 0.0 | 0.00 | 0.00 | 0.00 | 62 | 1013.6 | |
| 20260508011516 | 49 | 0.0 | 0.0 | 0.00 | 0.00 | 0.00 | 61 | 1013.5 | |
| 20260508010516 | 49 | 53 | 0.0 | 1.0 | 0.00 | 0.00 | 0.00 | 60 | 1013.4 |
| 20260508005536 | 50 | 0.0 | 1.0 | 0.00 | 0.00 | 0.00 | 60 | 1013.3 | |
| 20260508004516 | 51 | 53 | 0.0 | 1.0 | 0.00 | 0.00 | 0.00 | 59 | 1013.2 |
| 20260508003517 | 52 | 280 | 0.0 | 1.0 | 0.00 | 0.00 | 0.00 | 56 | 1013.2 |
| 20260508002516 | 54 | 0.0 | 0.0 | 0.00 | 0.00 | 0.00 | 52 | 1013.2 | |
| 20260508001516 | 55 | 279 | 0.0 | 2.0 | 0.00 | 0.00 | 0.00 | 49 | 1013.1 |
| 20260508000516 | 55 | 286 | 1.0 | 4.0 | 0.00 | 0.00 | 0.00 | 47 | 1012.9 |
| 20260507235516 | 56 | 278 | 2.0 | 7.0 | 0.00 | 0.00 | 0.00 | 45 | 1012.7 |
| 20260507234556 | 56 | 287 | 2.0 | 7.0 | 0.00 | 0.00 | 0.00 | 45 | 1012.6 |
| 20260507233516 | 56 | 289 | 3.0 | 6.0 | 0.00 | 0.00 | 0.00 | 45 | 1012.6 |
| 20260507232517 | 56 | 269 | 2.0 | 6.0 | 0.00 | 0.00 | 0.00 | 44 | 1012.6 |
| 20260507231517 | 57 | 278 | 3.0 | 6.0 | 0.00 | 0.00 | 0.00 | 44 | 1012.7 |
| 20260507230516 | 57 | 283 | 4.0 | 8.0 | 0.00 | 0.00 | 0.00 | 43 | 1012.7 |
| 20260507225516 | 57 | 289 | 3.0 | 9.0 | 0.00 | 0.00 | 0.00 | 44 | 1012.7 |
| 20260507224516 | 57 | 289 | 4.0 | 8.0 | 0.00 | 0.00 | 0.00 | 44 | 1012.7 |
| 20260507223516 | 57 | 287 | 4.0 | 12.0 | 0.00 | 0.00 | 0.00 | 45 | 1012.7 |
| 20260507222516 | 57 | 285 | 6.0 | 15.0 | 0.00 | 0.00 | 0.00 | 47 | 1012.6 |
| 20260507221516 | 57 | 290 | 4.0 | 10.0 | 0.00 | 0.00 | 0.00 | 46 | 1012.7 |
| 20260507220536 | 58 | 290 | 4.0 | 9.0 | 0.00 | 0.00 | 0.00 | 47 | 1012.6 |
| 20260507215516 | 58 | 284 | 5.0 | 11.0 | 0.00 | 0.00 | 0.00 | 48 | 1012.4 |
| 20260507214516 | 59 | 290 | 3.0 | 10.0 | 0.00 | 0.00 | 0.00 | 47 | 1012.3 |
| 20260507213516 | 59 | 275 | 4.0 | 10.0 | 0.00 | 0.00 | 0.00 | 47 | 1012.1 |
| 20260507212516 | 59 | 283 | 4.0 | 11.0 | 0.00 | 0.00 | 0.00 | 46 | 1011.9 |
| 20260507211536 | 59 | 288 | 5.0 | 10.0 | 0.00 | 0.00 | 0.00 | 45 | 1011.7 |
| 20260507210516 | 60 | 274 | 3.0 | 9.0 | 0.00 | 0.00 | 0.00 | 44 | 1011.6 |
| 20260507205516 | 59 | 281 | 4.0 | 7.0 | 0.00 | 0.00 | 0.00 | 44 | 1011.5 |
| 20260507204516 | 60 | 289 | 4.0 | 9.0 | 0.00 | 0.00 | 0.00 | 45 | 1011.7 |
| 20260507203536 | 61 | 296 | 3.0 | 6.0 | 0.00 | 0.00 | 0.00 | 43 | 1011.6 |
| 20260507202536 | 61 | 250 | 3.0 | 8.0 | 0.00 | 0.00 | 0.00 | 44 | 1011.4 |
| 20260507201516 | 60 | 268 | 4.0 | 9.0 | 0.00 | 0.00 | 0.00 | 46 | 1011.6 |
| 20260507200556 | 59 | 296 | 3.0 | 8.0 | 0.00 | 0.00 | 0.00 | 44 | 1011.7 |
| 20260507195556 | 59 | 292 | 4.0 | 9.0 | 0.00 | 0.00 | 0.00 | 47 | 1011.8 |
| 20260507194536 | 59 | 290 | 2.0 | 5.0 | 0.00 | 0.00 | 0.00 | 46 | 1011.8 |
| 20260507193516 | 59 | 281 | 2.0 | 6.0 | 0.00 | 0.00 | 0.00 | 45 | 1011.9 |
| 20260507192516 | 60 | 298 | 4.0 | 9.0 | 0.00 | 0.00 | 0.00 | 44 | 1012.0 |
| 20260507191536 | 59 | 288 | 3.0 | 6.0 | 0.00 | 0.00 | 0.00 | 46 | 1012.1 |
| 20260507190516 | 60 | 286 | 5.0 | 10.0 | 0.00 | 0.00 | 0.00 | 44 | 1012.2 |
| 20260507185516 | 60 | 292 | 3.0 | 8.0 | 0.00 | 0.00 | 0.00 | 41 | 1012.2 |
| 20260507184516 | 61 | 296 | 4.0 | 10.0 | 0.00 | 0.00 | 0.00 | 40 | 1012.1 |
| 20260507183516 | 61 | 261 | 3.0 | 8.0 | 0.00 | 0.00 | 0.00 | 44 | 1012.2 |
| 20260507182516 | 60 | 256 | 2.0 | 9.0 | 0.00 | 0.00 | 0.00 | 44 | 1012.2 |
| 20260507181516 | 60 | 239 | 4.0 | 11.0 | 0.00 | 0.00 | 0.00 | 44 | 1012.3 |
| 20260507180516 | 60 | 243 | 3.0 | 8.0 | 0.00 | 0.00 | 0.00 | 43 | 1012.4 |
| 20260507175516 | 60 | 286 | 4.0 | 11.0 | 0.00 | 0.00 | 0.00 | 45 | 1012.6 |
| 20260507174516 | 60 | 256 | 2.0 | 9.0 | 0.00 | 0.00 | 0.00 | 44 | 1012.7 |
| 20260507173516 | 59 | 276 | 3.0 | 10.0 | 0.00 | 0.00 | 0.00 | 42 | 1012.8 |
| 20260507172516 | 59 | 286 | 4.0 | 10.0 | 0.00 | 0.00 | 0.00 | 46 | 1012.9 |
| 20260507171536 | 59 | 292 | 3.0 | 9.0 | 0.00 | 0.00 | 0.00 | 44 | 1013.0 |
| 20260507170516 | 59 | 246 | 2.0 | 8.0 | 0.00 | 0.00 | 0.00 | 44 | 1013.1 |
| 20260507165516 | 59 | 225 | 3.0 | 9.0 | 0.00 | 0.00 | 0.00 | 45 | 1013.2 |
| 20260507164516 | 59 | 283 | 3.0 | 8.0 | 0.00 | 0.00 | 0.00 | 45 | 1013.2 |
| 20260507163516 | 58 | 227 | 4.0 | 9.0 | 0.00 | 0.00 | 0.00 | 45 | 1013.2 |
| 20260507162516 | 58 | 268 | 4.0 | 8.0 | 0.00 | 0.00 | 0.00 | 46 | 1013.2 |
| 20260507161516 | 57 | 297 | 4.0 | 7.0 | 0.00 | 0.00 | 0.00 | 46 | 1013.1 |
| 20260507160515 | 57 | 292 | 4.0 | 7.0 | 0.00 | 0.00 | 0.00 | 45 | 1013.2 |
| 20260507155516 | 57 | 244 | 3.0 | 9.0 | 0.00 | 0.00 | 0.00 | 46 | 1013.3 |
| 20260507154516 | 57 | 292 | 4.0 | 9.0 | 0.00 | 0.00 | 0.00 | 46 | 1013.3 |
| 20260507153515 | 56 | 240 | 3.0 | 6.0 | 0.00 | 0.00 | 0.00 | 49 | 1013.3 |
| 20260507152516 | 56 | 296 | 3.0 | 7.0 | 0.00 | 0.00 | 0.00 | 50 | 1013.4 |
| 20260507151536 | 56 | 242 | 3.0 | 7.0 | 0.00 | 0.00 | 0.00 | 49 | 1013.5 |
| 20260507150516 | 55 | 274 | 3.0 | 7.0 | 0.00 | 0.00 | 0.00 | 53 | 1013.6 |
| 20260507145515 | 55 | 287 | 2.0 | 6.0 | 0.00 | 0.00 | 0.00 | 56 | 1013.6 |
| 20260507144516 | 54 | 272 | 2.0 | 4.0 | 0.00 | 0.00 | 0.00 | 58 | 1013.7 |
| 20260507143516 | 54 | 307 | 3.0 | 7.0 | 0.00 | 0.00 | 0.00 | 55 | 1013.7 |
| 20260507142515 | 54 | 291 | 3.0 | 7.0 | 0.00 | 0.00 | 0.00 | 59 | 1013.7 |
| 20260507141516 | 53 | 281 | 2.0 | 6.0 | 0.00 | 0.00 | 0.00 | 61 | 1013.9 |
| 20260507140516 | 53 | 253 | 2.0 | 5.0 | 0.00 | 0.00 | 0.00 | 63 | 1014.0 |
| 20260507135515 | 52 | 290 | 2.0 | 5.0 | 0.00 | 0.00 | 0.00 | 62 | 1014.1 |
| 20260507134515 | 51 | 284 | 2.0 | 7.0 | 0.00 | 0.00 | 0.00 | 65 | 1014.2 |
| 20260507133515 | 51 | 297 | 2.0 | 4.0 | 0.00 | 0.00 | 0.00 | 68 | 1014.2 |
| 20260507132516 | 49 | 267 | 2.0 | 5.0 | 0.00 | 0.00 | 0.00 | 78 | 1014.1 |
| 20260507131516 | 48 | 142 | 0.0 | 1.0 | 0.00 | 0.00 | 0.00 | 87 | 1014.2 |
| 20260507130516 | 47 | 269 | 0.0 | 1.0 | 0.00 | 0.00 | 0.00 | 88 | 1014.2 |
| 20260507125515 | 46 | 91 | 0.0 | 1.0 | 0.00 | 0.00 | 0.00 | 89 | 1014.2 |
| 20260507124516 | 45 | 318 | 0.0 | 1.0 | 0.00 | 0.00 | 0.00 | 90 | 1014.1 |
| 20260507123516 | 44 | 281 | 0.0 | 1.0 | 0.00 | 0.01 | 0.00 | 90 | 1014.2 |
| 20260507122516 | 43 | 0.0 | 0.0 | 0.00 | 0.01 | 0.00 | 91 | 1014.1 | |
| 20260507121516 | 42 | 0.0 | 0.0 | 0.00 | 0.01 | 0.00 | 91 | 1014.2 | |
| 20260507120515 | 40 | 0.0 | 0.0 | 0.00 | 0.01 | 0.00 | 91 | 1014.1 | |
| 20260507115516 | 39 | 0.0 | 0.0 | 0.00 | 0.01 | 0.00 | 90 | 1014.0 | |
| 20260507114515 | 39 | 0.0 | 0.0 | 0.00 | 0.01 | 0.00 | 90 | 1014.0 | |
| 20260507113515 | 38 | 0.0 | 0.0 | 0.00 | 0.02 | 0.00 | 90 | 1013.9 | |
| 20260507112516 | 37 | 0.0 | 0.0 | 0.00 | 0.02 | 0.00 | 90 | 1013.8 | |
| 20260507111515 | 37 | 0.0 | 0.0 | 0.00 | 0.03 | 0.00 | 90 | 1013.8 | |
| 20260507110515 | 37 | 0.0 | 0.0 | 0.00 | 0.03 | 0.00 | 90 | 1013.7 | |
| 20260507105515 | 37 | 0.0 | 0.0 | 0.00 | 0.03 | 0.00 | 90 | 1013.7 | |
| 20260507104556 | 37 | 0.0 | 0.0 | 0.00 | 0.03 | 0.00 | 90 | 1013.7 | |
| 20260507103515 | 37 | 0.0 | 0.0 | 0.00 | 0.03 | 0.00 | 89 | 1013.7 | |
| 20260507102516 | 37 | 0.0 | 0.0 | 0.00 | 0.03 | 0.00 | 89 | 1013.6 | |
| 20260507101536 | 37 | 0.0 | 0.0 | 0.00 | 0.03 | 0.00 | 89 | 1013.6 | |
| 20260507100515 | 37 | 0.0 | 0.0 | 0.00 | 0.03 | 0.00 | 89 | 1013.4 | |
| 20260507095515 | 37 | 0.0 | 0.0 | 0.00 | 0.03 | 0.00 | 89 | 1013.5 | |
| 20260507094515 | 37 | 0.0 | 0.0 | 0.00 | 0.04 | 0.00 | 89 | 1013.5 | |
| 20260507093515 | 38 | 0.0 | 0.0 | 0.00 | 0.05 | 0.00 | 89 | 1013.5 | |
| 20260507092515 | 38 | 0.0 | 0.0 | 0.00 | 0.06 | 0.00 | 89 | 1013.5 | |
| 20260507091516 | 38 | 0.0 | 0.0 | 0.00 | 0.08 | 0.00 | 89 | 1013.6 | |
| 20260507090516 | 38 | 0.0 | 0.0 | 0.00 | 0.10 | 0.00 | 89 | 1013.6 | |
| 20260507085536 | 38 | 0.0 | 0.0 | 0.00 | 0.12 | 0.00 | 89 | 1013.7 | |
| 20260507084515 | 38 | 0.0 | 0.0 | 0.00 | 0.12 | 0.00 | 88 | 1013.6 | |
| 20260507083515 | 39 | 0.0 | 0.0 | 0.00 | 0.12 | 0.00 | 88 | 1013.7 | |
| 20260507082515 | 39 | 0.0 | 0.0 | 0.00 | 0.13 | 0.00 | 88 | 1013.7 | |
| 20260507081535 | 39 | 0.0 | 0.0 | 0.00 | 0.15 | 0.00 | 88 | 1013.8 | |
| 20260507080515 | 39 | 0.0 | 0.0 | 0.00 | 0.16 | 0.00 | 88 | 1013.8 | |
| 20260507075515 | 40 | 0.0 | 0.0 | 0.00 | 0.19 | 0.00 | 88 | 1013.9 | |
| 20260507074515 | 40 | 0.0 | 0.0 | 0.00 | 0.22 | 0.00 | 88 | 1013.7 | |
| 20260507073516 | 40 | 0.0 | 0.0 | 0.00 | 0.25 | 0.00 | 88 | 1013.7 | |
| 20260507072515 | 41 | 0.0 | 0.0 | 0.00 | 0.27 | 0.00 | 87 | 1013.7 | |
| 20260507071515 | 41 | 0.0 | 0.0 | 0.00 | 0.28 | 0.00 | 87 | 1013.7 | |
| 20260507070515 | 41 | 0.0 | 0.0 | 0.00 | 0.29 | 0.00 | 87 | 1013.6 | |
| 20260507065515 | 42 | 0.0 | 0.0 | 0.00 | 0.31 | 0.00 | 87 | 1013.7 |